Weather History for KPHD - April, 2014

Change the Weather History Date:

Friday, April 18, 2014

  Actual Average Record
Temperature  
Mean Temperature 53 °F 52 °F  
Max Temperature 69 °F 64 °F 86 °F (1976)
Min Temperature 37 °F 39 °F 24 °F (1983)
Degree Days  
Heating Degree Days 12 13  
Month to date heating degree days 266 291  
Since 1 July heating degree days 5862 5277  
Cooling Degree Days 0 0  
Month to date cooling degree days 1 0  
Year to date cooling degree days 1 1  
Growing Degree Days 3 (Base 50)    
Moisture  
Dew Point 32 °F    
Average Humidity 51    
Maximum Humidity 76    
Minimum Humidity 26    
Precipitation  
Precipitation 0.00 in 0.11 in - ()
Month to date precipitation 2.68 2.01  
Year to date precipitation 8.38 10.01  
Sea Level Pressure  
Sea Level Pressure 30.28 in    
Wind  
Wind Speed 4 mph (SSW)    
Max Wind Speed 15 mph    
Max Gust Speed 21 mph    
Visibility 10 miles    
Events      
T = Trace of Precipitation, MM = Missing Value Source: NWS Daily Summary

Daily Weather History Graph

Daily Weather History Graph

Search for Another Location

Airport or City:

Trip Planner

Search our weather history database for the weather conditions in past years. The results will help you decide how hot, cold, wet, or windy it might be!

Date:

Astronomy

Apr. 18, 2014 Rise Set
Actual Time 6:42 AM EDT 8:07 PM EDT
Civil Twilight 6:14 AM EDT 8:36 PM EDT
Nautical Twilight 5:40 AM EDT 9:10 PM EDT
Astronomical Twilight 5:04 AM EDT 9:47 PM EDT
Moon 11:52 PM EDT (4/18) 9:03 AM EDT (4/18)
Length of Visible Light 14h 22m
Length of Day
13h 25m
Waning Gibbous, 87% of the Moon is Illuminated
Apr 18
Waning Gibbous
Apr 22
Last Quarter
Apr 29
New
May 6
First Quarter
May 14
Full

Hourly Weather History & Observations

Time (EDT) Temp. Windchill Dew Point Humidity Pressure Visibility Wind Dir Wind Speed Gust Speed Precip Events Conditions
12:53 AM 45.0 °F 41.8 °F 30.9 °F 58% 30.32 in 10.0 mi SE 5.8 mph - N/A   Clear
1:53 AM 48.0 °F - 30.0 °F 50% 30.31 in 10.0 mi SE 6.9 mph - N/A   Clear
2:53 AM 46.9 °F - 28.9 °F 50% 30.30 in 10.0 mi SE 4.6 mph - N/A   Clear
3:53 AM 46.0 °F 43.9 °F 28.0 °F 50% 30.29 in 10.0 mi SE 4.6 mph - N/A   Clear
4:53 AM 41.0 °F - 30.0 °F 65% 30.30 in 10.0 mi Calm Calm - N/A   Clear
5:53 AM 37.9 °F 35.5 °F 30.0 °F 73% 30.32 in 10.0 mi ESE 3.5 mph - N/A   Clear
6:53 AM 37.9 °F 35.5 °F 30.9 °F 76% 30.32 in 10.0 mi ESE 3.5 mph - N/A   Clear
7:53 AM 42.1 °F 39.2 °F 34.0 °F 73% 30.32 in 10.0 mi SE 4.6 mph - N/A   Clear
8:53 AM 46.9 °F - 30.0 °F 52% 30.32 in 10.0 mi SE 5.8 mph - N/A   Clear
9:53 AM 50.0 °F - 28.9 °F 44% 30.32 in 10.0 mi SE 3.5 mph - N/A   Clear
10:53 AM 55.0 °F - 26.1 °F 33% 30.32 in 10.0 mi SW 5.8 mph - N/A   Clear
11:53 AM 59.0 °F - 27.0 °F 29% 30.30 in 10.0 mi SW 4.6 mph - N/A   Clear
12:53 PM 63.0 °F - 30.0 °F 29% 30.29 in 10.0 mi WNW 3.5 mph - N/A   Clear
1:53 PM 66.0 °F - 33.1 °F 29% 30.27 in 10.0 mi WNW 4.6 mph - N/A   Clear
2:53 PM 68.0 °F - 34.0 °F 28% 30.25 in 10.0 mi WNW 10.4 mph 19.6 mph N/A   Clear
3:53 PM 69.1 °F - 34.0 °F 27% 30.23 in 10.0 mi West 5.8 mph - N/A   Clear
4:53 PM 68.0 °F - 32.0 °F 26% 30.22 in 10.0 mi WNW 8.1 mph 18.4 mph N/A   Partly Cloudy
5:53 PM 66.0 °F - 34.0 °F 30% 30.22 in 10.0 mi NW 8.1 mph - N/A   Overcast
6:53 PM 64.9 °F - 35.1 °F 33% 30.22 in 10.0 mi NNW 5.8 mph - N/A   Overcast
7:53 PM 62.1 °F - 37.9 °F 41% 30.22 in 10.0 mi NNW 4.6 mph - N/A   Scattered Clouds
8:53 PM 57.0 °F - 37.9 °F 49% 30.23 in 9.0 mi Calm Calm - N/A   Clear
9:53 PM 53.1 °F - 39.0 °F 59% 30.24 in 10.0 mi Calm Calm - N/A   Clear
11:53 PM 48.0 °F - 39.0 °F 71% 30.25 in 10.0 mi Calm Calm - N/A   Clear